Location: Unspecified
(0.0000°N, 0.0000°E)
Time: 02:25:03
(UTC+00:00)

SR - Visible Passes

Search period start: 27 May 2017 00:00
Search period end: 06 June 2017 00:00
Orbit: 574 x 883 km, 66.7° (Epoch: 26 May)

Date Brightness Start Highest point End Pass type
(mag) Time Alt. Az. Time Alt. Az. Time Alt. Az.
27 May ? 19:23:17 10° S 19:28:19 50° ESE 19:33:44 10° NE visible
27 May ? 21:08:57 10° W 21:10:22 11° WNW 21:11:47 10° NW visible
28 May ? 18:35:16 10° SSE 18:39:02 20° ESE 18:43:00 10° ENE visible
28 May ? 20:16:22 10° SW 20:20:51 28° WNW 20:25:37 10° NNW visible
29 May ? 19:26:12 10° SSW 19:31:25 69° WNW 19:37:03 10° NNE visible
30 May ? 18:37:04 10° S 18:42:05 47° ESE 18:47:28 10° NE visible
30 May ? 20:22:07 10° W 20:24:06 12° WNW 20:26:08 10° NW visible
31 May ? 19:29:58 10° SW 19:34:35 30° WNW 19:39:29 10° N visible
01 Jun ? 18:39:54 10° SSW 18:45:10 74° WNW 18:50:51 10° NNE visible
02 Jun ? 05:27:49 10° NNE 05:30:38 15° ENE 05:33:20 10° ESE visible
02 Jun ? 19:35:25 10° W 19:37:50 13° WNW 19:40:19 10° NW visible
03 Jun ? 18:43:37 10° SW 18:48:20 32° WNW 18:53:21 10° N visible
04 Jun ? 05:29:20 10° N 05:33:49 39° ENE 05:37:58 10° SE visible
05 Jun ? 04:41:50 10° NE 04:44:21 14° ENE 04:46:47 10° E visible
05 Jun ? 18:48:49 10° W 18:51:35 14° WNW 18:54:25 10° NW visible
